Time,TemperatureF,DewpointF,PressureIn,WindDirection,WindDirectionDegrees,WindSpeedMPH,WindSpeedGustMPH,Humidity,HourlyPrecipIn,Conditions,Clouds,dailyrainin,SoftwareType,DateUTC
2013-03-27 00:03:00,39.0,28.0,30.09,WNW,295,2.0,4.0,64,0.00,,,0.00,,2013-03-27 04:03:00,
2013-03-27 00:13:00,39.0,28.0,30.09,WNW,295,2.0,4.0,64,0.00,,,0.00,,2013-03-27 04:13:00,
2013-03-27 00:23:00,39.0,28.0,30.10,WNW,291,2.0,7.0,64,0.00,,,0.00,,2013-03-27 04:23:00,
2013-03-27 00:33:00,39.0,28.0,30.10,WNW,295,2.0,5.0,64,0.00,,,0.00,,2013-03-27 04:33:00,
2013-03-27 00:42:00,39.0,28.0,30.10,WNW,295,2.0,5.0,64,0.00,,,0.00,,2013-03-27 04:42:00,
2013-03-27 00:53:00,39.0,28.0,30.11,WNW,300,2.0,6.0,65,0.00,,,0.00,,2013-03-27 04:53:00,
2013-03-27 01:02:00,38.0,28.0,30.11,WNW,290,3.0,6.0,66,0.00,,,0.00,,2013-03-27 05:02:00,
2013-03-27 01:12:00,38.0,28.0,30.11,WNW,290,3.0,6.0,66,0.00,,,0.00,,2013-03-27 05:12:00,
2013-03-27 01:23:00,38.0,28.0,30.11,NW,313,3.0,6.0,67,0.00,,,0.00,,2013-03-27 05:23:00,
2013-03-27 01:33:00,38.0,28.0,30.11,NW,304,4.0,8.0,67,0.00,,,0.00,,2013-03-27 05:33:00,
2013-03-27 01:42:00,38.0,28.0,30.11,NW,304,4.0,8.0,67,0.00,,,0.00,,2013-03-27 05:42:00,
2013-03-27 01:53:00,38.0,28.0,30.11,NW,309,2.0,8.0,67,0.00,,,0.00,,2013-03-27 05:53:00,
2013-03-27 02:02:00,38.0,28.0,30.11,WNW,302,3.0,7.0,68,0.00,,,0.00,,2013-03-27 06:02:00,
2013-03-27 02:12:00,38.0,28.0,30.11,WNW,302,3.0,7.0,68,0.00,,,0.00,,2013-03-27 06:12:00,
2013-03-27 02:22:00,38.0,29.0,30.11,WNW,299,3.0,6.0,69,0.00,,,0.00,,2013-03-27 06:22:00,
2013-03-27 02:32:00,38.0,29.0,30.11,NNW,333,3.0,8.0,69,0.00,,,0.00,,2013-03-27 06:32:00,
2013-03-27 02:42:00,38.0,29.0,30.11,NNW,333,3.0,8.0,69,0.00,,,0.00,,2013-03-27 06:42:00,
2013-03-27 02:53:00,38.0,29.0,30.11,NW,326,4.0,8.0,69,0.00,,,0.00,,2013-03-27 06:53:00,
2013-03-27 03:02:00,37.0,28.0,30.10,NW,316,3.0,7.0,70,0.00,,,0.00,,2013-03-27 07:02:00,
2013-03-27 03:12:00,37.0,28.0,30.10,NW,316,3.0,7.0,70,0.00,,,0.00,,2013-03-27 07:12:00,
2013-03-27 03:22:00,37.0,28.0,30.10,NW,323,2.0,6.0,71,0.00,,,0.00,,2013-03-27 07:22:00,
2013-03-27 03:32:00,37.0,29.0,30.10,West,280,3.0,6.0,72,0.00,,,0.00,,2013-03-27 07:32:00,
2013-03-27 03:42:00,37.0,29.0,30.10,West,280,3.0,6.0,72,0.00,,,0.00,,2013-03-27 07:42:00,
2013-03-27 03:53:00,36.0,28.0,30.10,WNW,293,3.0,7.0,72,0.00,,,0.00,,2013-03-27 07:53:00,
2013-03-27 04:02:00,36.0,28.0,30.10,WNW,288,4.0,6.0,72,0.00,,,0.00,,2013-03-27 08:02:00,
2013-03-27 04:13:00,36.0,28.0,30.10,WNW,288,4.0,6.0,72,0.00,,,0.00,,2013-03-27 08:13:00,
2013-03-27 04:22:00,36.0,28.0,30.11,NW,316,3.0,9.0,72,0.00,,,0.00,,2013-03-27 08:22:00,
2013-03-27 04:32:00,36.0,28.0,30.11,WNW,302,3.0,6.0,73,0.00,,,0.00,,2013-03-27 08:32:00,
2013-03-27 04:43:00,36.0,28.0,30.11,WNW,302,3.0,6.0,73,0.00,,,0.00,,2013-03-27 08:43:00,
2013-03-27 04:52:00,36.0,29.0,30.11,WNW,291,2.0,7.0,74,0.00,,,0.00,,2013-03-27 08:52:00,
2013-03-27 05:02:00,36.0,29.0,30.11,West,264,3.0,6.0,75,0.00,,,0.00,,2013-03-27 09:02:00,
2013-03-27 05:12:00,36.0,29.0,30.11,West,264,3.0,6.0,75,0.00,,,0.00,,2013-03-27 09:12:00,
2013-03-27 05:22:00,35.0,28.0,30.12,WNW,302,3.0,7.0,76,0.00,,,0.00,,2013-03-27 09:22:00,
2013-03-27 05:33:00,35.0,28.0,30.12,WNW,295,3.0,6.0,75,0.00,,,0.00,,2013-03-27 09:33:00,
2013-03-27 05:42:00,35.0,28.0,30.12,WNW,295,3.0,6.0,75,0.00,,,0.00,,2013-03-27 09:42:00,
2013-03-27 05:52:00,35.0,28.0,30.12,WNW,295,2.0,8.0,76,0.00,,,0.00,,2013-03-27 09:52:00,
2013-03-27 06:02:00,35.0,28.0,30.13,WNW,298,3.0,8.0,76,0.00,,,0.00,,2013-03-27 10:02:00,
2013-03-27 06:13:00,35.0,28.0,30.13,WNW,298,3.0,8.0,76,0.00,,,0.00,,2013-03-27 10:13:00,
2013-03-27 06:23:00,35.0,28.0,30.13,NW,311,3.0,7.0,76,0.00,,,0.00,,2013-03-27 10:23:00,
2013-03-27 06:32:00,34.0,28.0,30.14,WNW,298,4.0,7.0,77,0.00,,,0.00,,2013-03-27 10:32:00,
2013-03-27 06:42:00,34.0,28.0,30.14,WNW,298,4.0,7.0,77,0.00,,,0.00,,2013-03-27 10:42:00,
2013-03-27 06:53:00,34.0,28.0,30.14,WNW,300,3.0,8.0,78,0.00,,,0.00,,2013-03-27 10:53:00,
2013-03-27 07:03:00,34.0,28.0,30.14,WNW,291,3.0,8.0,79,0.00,,,0.00,,2013-03-27 11:03:00,
2013-03-27 07:12:00,34.0,28.0,30.14,WNW,291,3.0,8.0,79,0.00,,,0.00,,2013-03-27 11:12:00,
2013-03-27 07:22:00,34.0,28.0,30.15,WNW,288,3.0,8.0,79,0.00,,,0.00,,2013-03-27 11:22:00,
2013-03-27 07:32:00,34.0,28.0,30.16,WNW,294,4.0,7.0,80,0.00,,,0.00,,2013-03-27 11:32:00,
2013-03-27 07:42:00,34.0,28.0,30.16,WNW,294,4.0,7.0,80,0.00,,,0.00,,2013-03-27 11:42:00,
2013-03-27 07:53:00,34.0,28.0,30.16,NW,312,4.0,9.0,79,0.00,,,0.00,,2013-03-27 11:53:00,
2013-03-27 08:02:00,34.0,28.0,30.17,NW,324,3.0,9.0,79,0.00,,,0.00,,2013-03-27 12:02:00,
2013-03-27 08:12:00,34.0,28.0,30.17,NW,324,3.0,9.0,79,0.00,,,0.00,,2013-03-27 12:12:00,
2013-03-27 08:23:00,35.0,28.0,30.18,NW,312,5.0,7.0,76,0.00,,,0.00,,2013-03-27 12:23:00,
2013-03-27 08:32:00,37.0,29.0,30.18,NW,304,3.0,10.0,74,0.00,,,0.00,,2013-03-27 12:32:00,
2013-03-27 08:43:00,37.0,29.0,30.18,NW,304,3.0,10.0,74,0.00,,,0.00,,2013-03-27 12:43:00,
2013-03-27 08:52:00,38.0,30.0,30.18,NW,308,5.0,12.0,72,0.00,,,0.00,,2013-03-27 12:52:00,
2013-03-27 09:02:00,39.0,30.0,30.19,NNW,329,5.0,11.0,70,0.00,,,0.00,,2013-03-27 13:02:00,
2013-03-27 09:12:00,39.0,30.0,30.19,NNW,329,5.0,11.0,70,0.00,,,0.00,,2013-03-27 13:12:00,
2013-03-27 09:22:00,39.0,29.0,30.19,WNW,295,6.0,11.0,68,0.00,,,0.00,,2013-03-27 13:22:00,
2013-03-27 09:32:00,41.0,31.0,30.19,NW,308,6.0,10.0,66,0.00,,,0.00,,2013-03-27 13:32:00,
2013-03-27 09:42:00,41.0,31.0,30.19,NW,308,6.0,10.0,66,0.00,,,0.00,,2013-03-27 13:42:00,
2013-03-27 09:53:00,42.0,29.0,30.19,NW,312,4.0,11.0,60,0.00,,,0.00,,2013-03-27 13:53:00,
2013-03-27 10:02:00,43.0,28.0,30.19,West,276,6.0,13.0,56,0.00,,,0.00,,2013-03-27 14:02:00,
2013-03-27 10:12:00,43.0,28.0,30.19,West,276,6.0,13.0,56,0.00,,,0.00,,2013-03-27 14:12:00,
2013-03-27 10:22:00,44.0,28.0,30.19,West,262,5.0,15.0,53,0.00,,,0.00,,2013-03-27 14:22:00,
2013-03-27 10:32:00,44.0,27.0,30.19,North,5,8.0,15.0,50,0.00,,,0.00,,2013-03-27 14:32:00,
2013-03-27 10:42:00,44.0,27.0,30.19,North,5,8.0,15.0,50,0.00,,,0.00,,2013-03-27 14:42:00,
2013-03-27 10:52:00,45.0,27.0,30.19,NNW,338,7.0,14.0,48,0.00,,,0.00,,2013-03-27 14:52:00,
2013-03-27 11:02:00,46.0,27.0,30.18,NW,323,7.0,13.0,47,0.00,,,0.00,,2013-03-27 15:02:00,
2013-03-27 11:12:00,46.0,27.0,30.18,NW,323,7.0,13.0,47,0.00,,,0.00,,2013-03-27 15:12:00,
2013-03-27 11:23:00,46.0,26.0,30.18,NW,315,9.0,13.0,46,0.00,,,0.00,,2013-03-27 15:23:00,
2013-03-27 11:33:00,47.0,27.0,30.18,NW,308,5.0,11.0,45,0.00,,,0.00,,2013-03-27 15:33:00,
2013-03-27 11:42:00,47.0,27.0,30.18,NW,308,5.0,11.0,45,0.00,,,0.00,,2013-03-27 15:42:00,
2013-03-27 11:53:00,47.0,25.0,30.17,North,356,9.0,16.0,41,0.00,,,0.00,,2013-03-27 15:53:00,
2013-03-27 12:03:00,48.0,26.0,30.17,North,8,7.0,12.0,42,0.00,,,0.00,,2013-03-27 16:03:00,
2013-03-27 12:13:00,48.0,26.0,30.17,North,8,7.0,12.0,42,0.00,,,0.00,,2013-03-27 16:13:00,
2013-03-27 12:22:00,49.0,26.0,30.17,North,8,5.0,13.0,41,0.00,,,0.00,,2013-03-27 16:22:00,
2013-03-27 12:32:00,49.0,25.0,30.17,NE,36,7.0,12.0,39,0.00,,,0.00,,2013-03-27 16:32:00,
2013-03-27 12:42:00,49.0,25.0,30.17,NE,36,7.0,12.0,39,0.00,,,0.00,,2013-03-27 16:42:00,
2013-03-27 12:52:00,49.0,26.0,30.16,NNW,328,7.0,14.0,40,0.00,,,0.00,,2013-03-27 16:52:00,
2013-03-27 13:03:00,50.0,26.0,30.16,NNW,335,6.0,13.0,39,0.00,,,0.00,,2013-03-27 17:03:00,
2013-03-27 13:12:00,50.0,26.0,30.16,NNW,335,6.0,13.0,39,0.00,,,0.00,,2013-03-27 17:12:00,
2013-03-27 13:22:00,50.0,26.0,30.16,NW,305,5.0,17.0,39,0.00,,,0.00,,2013-03-27 17:22:00,
2013-03-27 13:32:00,50.0,25.0,30.16,NNW,336,6.0,16.0,38,0.00,,,0.00,,2013-03-27 17:32:00,
2013-03-27 13:44:00,50.0,25.0,30.16,NNW,336,6.0,16.0,38,0.00,,,0.00,,2013-03-27 17:44:00,
2013-03-27 13:52:00,51.0,26.0,30.16,NNW,333,7.0,17.0,38,0.00,,,0.00,,2013-03-27 17:52:00,
2013-03-27 14:02:00,51.0,25.0,30.15,NNW,333,8.0,17.0,36,0.00,,,0.00,,2013-03-27 18:02:00,
2013-03-27 14:12:00,51.0,25.0,30.15,NNW,333,8.0,17.0,36,0.00,,,0.00,,2013-03-27 18:12:00,
2013-03-27 14:23:00,52.0,27.0,30.15,West,280,6.0,11.0,37,0.00,,,0.00,,2013-03-27 18:23:00,
2013-03-27 14:32:00,52.0,27.0,30.14,West,277,6.0,15.0,37,0.00,,,0.00,,2013-03-27 18:32:00,
2013-03-27 14:42:00,52.0,27.0,30.14,West,277,6.0,15.0,37,0.00,,,0.00,,2013-03-27 18:42:00,
2013-03-27 14:53:00,51.0,26.0,30.14,WSW,255,6.0,15.0,38,0.00,,,0.00,,2013-03-27 18:53:00,
2013-03-27 15:02:00,53.0,26.0,30.14,WNW,285,9.0,19.0,35,0.00,,,0.00,,2013-03-27 19:02:00,
2013-03-27 15:12:00,53.0,26.0,30.14,WNW,285,9.0,19.0,35,0.00,,,0.00,,2013-03-27 19:12:00,
2013-03-27 15:22:00,52.0,27.0,30.13,NW,314,5.0,17.0,38,0.00,,,0.00,,2013-03-27 19:22:00,
2013-03-27 15:32:00,52.0,27.0,30.13,NW,318,8.0,15.0,37,0.00,,,0.00,,2013-03-27 19:32:00,
2013-03-27 15:42:00,52.0,27.0,30.13,NW,318,8.0,15.0,37,0.00,,,0.00,,2013-03-27 19:42:00,
2013-03-27 15:52:00,51.0,24.0,30.14,NNW,330,11.0,18.0,35,0.00,,,0.00,,2013-03-27 19:52:00,
2013-03-27 16:03:00,52.0,26.0,30.13,NW,316,6.0,18.0,36,0.00,,,0.00,,2013-03-27 20:03:00,
2013-03-27 16:12:00,52.0,26.0,30.13,NW,316,6.0,18.0,36,0.00,,,0.00,,2013-03-27 20:12:00,
2013-03-27 16:22:00,52.0,27.0,30.13,NW,312,7.0,18.0,37,0.00,,,0.00,,2013-03-27 20:22:00,
2013-03-27 16:32:00,52.0,25.0,30.13,NW,311,10.0,18.0,35,0.00,,,0.00,,2013-03-27 20:32:00,
2013-03-27 16:42:00,52.0,25.0,30.13,NW,311,10.0,18.0,35,0.00,,,0.00,,2013-03-27 20:42:00,
2013-03-27 16:52:00,52.0,25.0,30.13,WNW,286,7.0,17.0,34,0.00,,,0.00,,2013-03-27 20:52:00,
2013-03-27 17:02:00,52.0,25.0,30.12,NNW,328,7.0,16.0,34,0.00,,,0.00,,2013-03-27 21:02:00,
2013-03-27 17:12:00,52.0,25.0,30.12,NNW,328,7.0,16.0,34,0.00,,,0.00,,2013-03-27 21:12:00,
2013-03-27 17:22:00,52.0,24.0,30.13,NW,311,7.0,14.0,33,0.00,,,0.00,,2013-03-27 21:22:00,
2013-03-27 17:32:00,51.0,23.0,30.13,WSW,252,8.0,16.0,33,0.00,,,0.00,,2013-03-27 21:32:00,
2013-03-27 17:43:00,51.0,23.0,30.13,WSW,252,8.0,16.0,33,0.00,,,0.00,,2013-03-27 21:43:00,
2013-03-27 17:52:00,52.0,25.0,30.13,WNW,283,4.0,14.0,34,0.00,,,0.00,,2013-03-27 21:52:00,
2013-03-27 18:03:00,52.0,24.0,30.13,West,264,6.0,14.0,33,0.00,,,0.00,,2013-03-27 22:03:00,
2013-03-27 18:12:00,52.0,24.0,30.13,West,264,6.0,14.0,33,0.00,,,0.00,,2013-03-27 22:12:00,
2013-03-27 18:23:00,51.0,22.0,30.14,NNW,335,9.0,22.0,32,0.00,,,0.00,,2013-03-27 22:23:00,
2013-03-27 18:33:00,51.0,23.0,30.14,WNW,286,5.0,14.0,33,0.00,,,0.00,,2013-03-27 22:33:00,
2013-03-27 18:42:00,51.0,23.0,30.14,WNW,286,5.0,14.0,33,0.00,,,0.00,,2013-03-27 22:42:00,
2013-03-27 18:53:00,50.0,22.0,30.14,NW,310,7.0,15.0,33,0.00,,,0.00,,2013-03-27 22:53:00,
2013-03-27 19:02:00,50.0,23.0,30.14,WNW,302,6.0,13.0,34,0.00,,,0.00,,2013-03-27 23:02:00,
2013-03-27 19:12:00,50.0,23.0,30.14,WNW,302,6.0,13.0,34,0.00,,,0.00,,2013-03-27 23:12:00,
2013-03-27 19:22:00,49.0,23.0,30.16,NW,307,6.0,12.0,35,0.00,,,0.00,,2013-03-27 23:22:00,
2013-03-27 19:32:00,48.0,23.0,30.17,NW,310,6.0,13.0,37,0.00,,,0.00,,2013-03-27 23:32:00,
2013-03-27 19:42:00,48.0,23.0,30.17,NW,310,6.0,13.0,37,0.00,,,0.00,,2013-03-27 23:42:00,
2013-03-27 19:52:00,47.0,23.0,30.17,NNW,342,4.0,10.0,38,0.00,,,0.00,,2013-03-27 23:52:00,
2013-03-27 20:02:00,46.0,22.0,30.17,NW,314,4.0,8.0,39,0.00,,,0.00,,2013-03-28 00:02:00,
2013-03-27 20:12:00,46.0,22.0,30.17,NW,314,4.0,8.0,39,0.00,,,0.00,,2013-03-28 00:12:00,
2013-03-27 20:22:00,45.0,23.0,30.18,North,352,3.0,12.0,41,0.00,,,0.00,,2013-03-28 00:22:00,
2013-03-27 20:33:00,45.0,23.0,30.19,NW,314,4.0,8.0,42,0.00,,,0.00,,2013-03-28 00:33:00,
2013-03-27 20:43:00,45.0,23.0,30.19,NW,314,4.0,8.0,42,0.00,,,0.00,,2013-03-28 00:43:00,
2013-03-27 20:52:00,44.0,23.0,30.19,NNW,342,3.0,7.0,43,0.00,,,0.00,,2013-03-28 00:52:00,
2013-03-27 21:02:00,44.0,23.0,30.19,NNW,346,4.0,8.0,43,0.00,,,0.00,,2013-03-28 01:02:00,
2013-03-27 21:12:00,44.0,23.0,30.19,NNW,346,4.0,8.0,43,0.00,,,0.00,,2013-03-28 01:12:00,
2013-03-27 21:22:00,44.0,23.0,30.20,NNW,345,3.0,7.0,44,0.00,,,0.00,,2013-03-28 01:22:00,
2013-03-27 21:32:00,43.0,23.0,30.20,NNE,30,1.0,6.0,45,0.00,,,0.00,,2013-03-28 01:32:00,
2013-03-27 21:42:00,43.0,23.0,30.20,NNE,30,1.0,6.0,45,0.00,,,0.00,,2013-03-28 01:42:00,
2013-03-27 21:53:00,42.0,23.0,30.21,NW,325,3.0,4.0,47,0.00,,,0.00,,2013-03-28 01:53:00,
2013-03-27 22:03:00,42.0,24.0,30.21,NW,314,1.0,2.0,48,0.00,,,0.00,,2013-03-28 02:03:00,
2013-03-27 22:12:00,42.0,24.0,30.21,NW,314,1.0,2.0,48,0.00,,,0.00,,2013-03-28 02:12:00,
2013-03-27 22:22:00,41.0,24.0,30.21,NW,304,0.0,2.0,50,0.00,,,0.00,,2013-03-28 02:22:00,
2013-03-27 22:32:00,40.0,23.0,30.21,WNW,290,0.0,1.0,51,0.00,,,0.00,,2013-03-28 02:32:00,
2013-03-27 22:42:00,40.0,23.0,30.21,WNW,290,0.0,1.0,51,0.00,,,0.00,,2013-03-28 02:42:00,
2013-03-27 22:52:00,40.0,23.0,30.21,WNW,290,0.0,1.0,51,0.00,,,0.00,,2013-03-28 02:52:00,
2013-03-27 23:02:00,38.0,23.0,30.21,West,271,0.0,1.0,55,0.00,,,0.00,,2013-03-28 03:02:00,
2013-03-27 23:12:00,38.0,23.0,30.21,West,271,0.0,1.0,55,0.00,,,0.00,,2013-03-28 03:12:00,
2013-03-27 23:22:00,38.0,24.0,30.21,WNW,288,1.0,3.0,56,0.00,,,0.00,,2013-03-28 03:22:00,
2013-03-27 23:33:00,38.0,24.0,30.21,WNW,288,0.0,1.0,56,0.00,,,0.00,,2013-03-28 03:33:00,
2013-03-27 23:43:00,38.0,24.0,30.21,WNW,288,0.0,1.0,56,0.00,,,0.00,,2013-03-28 03:43:00,
2013-03-27 23:53:00,38.0,25.0,30.22,WNW,288,0.0,1.0,58,0.00,,,0.00,,2013-03-28 03:53:00,